Time,TemperatureF,DewpointF,PressureIn,WindDirection,WindDirectionDegrees,WindSpeedMPH,WindSpeedGustMPH,Humidity,HourlyPrecipIn,Conditions,Clouds,dailyrainin,SoftwareType,DateUTC
2013-04-21 00:01:00,44.4,41.7,30.27,West,270,0.0,0.0,90,0.00,CLR,,0.00,WeatherDisplay:10.37,2013-04-21 04:01:00,
2013-04-21 00:06:00,44.4,41.7,30.27,West,270,0.0,0.0,90,0.00,CLR,,0.00,WeatherDisplay:10.37,2013-04-21 04:06:00,
2013-04-21 00:11:00,44.2,41.5,30.27,NW,315,0.0,0.0,90,0.00,CLR,,0.00,WeatherDisplay:10.37,2013-04-21 04:11:00,
2013-04-21 00:16:00,44.2,41.5,30.27,NW,315,0.0,0.0,90,0.00,CLR,,0.00,WeatherDisplay:10.37,2013-04-21 04:16:00,
2013-04-21 00:21:00,44.1,41.3,30.27,North,0,0.0,0.0,90,0.00,CLR,,0.00,WeatherDisplay:10.37,2013-04-21 04:21:00,
2013-04-21 00:26:00,44.1,41.3,30.27,North,0,0.0,0.0,90,0.00,CLR,,0.00,WeatherDisplay:10.37,2013-04-21 04:26:00,
2013-04-21 00:31:00,43.9,40.8,30.27,North,0,0.0,0.0,89,0.00,CLR,,0.00,WeatherDisplay:10.37,2013-04-21 04:31:00,
2013-04-21 00:36:00,43.9,40.8,30.28,NW,315,0.0,0.0,89,0.00,CLR,,0.00,WeatherDisplay:10.37,2013-04-21 04:36:00,
2013-04-21 00:41:00,43.9,40.8,30.28,NW,315,0.0,0.0,89,0.00,CLR,,0.00,WeatherDisplay:10.37,2013-04-21 04:41:00,
2013-04-21 00:46:00,43.7,40.7,30.27,NW,315,0.0,0.0,89,0.00,CLR,,0.00,WeatherDisplay:10.37,2013-04-21 04:46:00,
2013-04-21 00:51:00,43.5,40.5,30.27,NW,315,0.0,0.0,89,0.00,CLR,,0.00,WeatherDisplay:10.37,2013-04-21 04:51:00,
2013-04-21 00:56:00,43.5,40.2,30.27,NW,315,0.0,0.0,88,0.00,CLR,,0.00,WeatherDisplay:10.37,2013-04-21 04:56:00,
2013-04-21 01:01:00,43.5,40.2,30.27,NW,315,0.0,0.0,88,0.00,CLR,,0.00,WeatherDisplay:10.37,2013-04-21 05:01:00,
2013-04-21 01:06:00,43.3,40.0,30.28,NW,315,0.0,0.0,88,0.00,CLR,,0.00,WeatherDisplay:10.37,2013-04-21 05:06:00,
2013-04-21 01:11:00,43.3,40.0,30.27,NW,315,0.0,0.0,88,0.00,CLR,,0.00,WeatherDisplay:10.37,2013-04-21 05:11:00,
2013-04-21 01:16:00,43.3,40.0,30.28,North,0,0.0,0.0,88,0.00,CLR,,0.00,WeatherDisplay:10.37,2013-04-21 05:16:00,
2013-04-21 01:21:00,43.3,40.3,30.27,NW,315,0.0,0.0,89,0.00,CLR,,0.00,WeatherDisplay:10.37,2013-04-21 05:21:00,
2013-04-21 01:26:00,43.3,40.3,30.28,North,0,0.0,0.0,89,0.00,CLR,,0.00,WeatherDisplay:10.37,2013-04-21 05:26:00,
2013-04-21 01:31:00,43.2,40.1,30.28,West,270,0.0,0.0,89,0.00,CLR,,0.00,WeatherDisplay:10.37,2013-04-21 05:31:00,
2013-04-21 01:36:00,43.3,40.0,30.28,North,0,0.0,0.0,88,0.00,CLR,,0.00,WeatherDisplay:10.37,2013-04-21 05:36:00,
2013-04-21 01:41:00,43.3,40.0,30.28,North,0,0.0,0.0,88,0.00,CLR,,0.00,WeatherDisplay:10.37,2013-04-21 05:41:00,
2013-04-21 01:46:00,43.3,40.0,30.28,North,0,0.0,0.0,88,0.00,CLR,,0.00,WeatherDisplay:10.37,2013-04-21 05:46:00,
2013-04-21 01:51:00,43.3,39.7,30.28,North,0,0.0,0.0,87,0.00,CLR,,0.00,WeatherDisplay:10.37,2013-04-21 05:51:00,
2013-04-21 01:56:00,43.3,39.7,30.27,North,0,0.0,0.0,87,0.00,CLR,,0.00,WeatherDisplay:10.37,2013-04-21 05:56:00,
2013-04-21 02:01:00,43.3,39.7,30.27,NW,315,0.0,0.0,87,0.00,CLR,,0.00,WeatherDisplay:10.37,2013-04-21 06:01:00,
2013-04-21 02:06:00,43.3,39.7,30.27,NW,315,0.0,0.0,87,0.00,CLR,,0.00,WeatherDisplay:10.37,2013-04-21 06:06:00,
2013-04-21 02:11:00,43.2,39.6,30.27,NW,315,0.0,0.0,87,0.00,CLR,,0.00,WeatherDisplay:10.37,2013-04-21 06:11:00,
2013-04-21 02:16:00,43.0,39.4,30.27,NW,315,0.0,0.0,87,0.00,CLR,,0.00,WeatherDisplay:10.37,2013-04-21 06:16:00,
2013-04-21 02:21:00,42.8,39.2,30.27,NW,315,0.0,0.0,87,0.00,CLR,,0.00,WeatherDisplay:10.37,2013-04-21 06:21:00,
2013-04-21 02:26:00,42.6,39.3,30.27,NW,315,0.0,0.0,88,0.00,CLR,,0.00,WeatherDisplay:10.37,2013-04-21 06:26:00,
2013-04-21 02:31:00,42.4,39.4,30.27,NW,315,0.0,0.0,89,0.00,CLR,,0.00,WeatherDisplay:10.37,2013-04-21 06:31:00,
2013-04-21 02:36:00,42.4,39.1,30.27,NW,315,0.0,0.0,88,0.00,CLR,,0.00,WeatherDisplay:10.37,2013-04-21 06:36:00,
2013-04-21 02:41:00,42.3,39.0,30.27,NW,315,0.0,0.0,88,0.00,CLR,,0.00,WeatherDisplay:10.37,2013-04-21 06:41:00,
2013-04-21 02:46:00,42.1,39.1,30.27,NW,315,0.0,0.0,89,0.00,CLR,,0.00,WeatherDisplay:10.37,2013-04-21 06:46:00,
2013-04-21 02:51:00,42.1,39.4,30.28,NW,315,0.0,0.0,90,0.00,CLR,,0.00,WeatherDisplay:10.37,2013-04-21 06:51:00,
2013-04-21 02:56:00,42.1,39.6,30.28,NW,315,0.0,0.0,91,0.00,CLR,,0.00,WeatherDisplay:10.37,2013-04-21 06:56:00,
2013-04-21 03:01:00,41.9,39.5,30.28,NW,315,0.0,0.0,91,0.00,CLR,,0.00,WeatherDisplay:10.37,2013-04-21 07:01:00,
2013-04-21 03:06:00,41.7,39.3,30.27,NW,315,0.0,0.0,91,0.00,CLR,,0.00,WeatherDisplay:10.37,2013-04-21 07:06:00,
2013-04-21 03:11:00,41.7,39.0,30.28,NW,315,0.0,0.0,90,0.00,CLR,,0.00,WeatherDisplay:10.37,2013-04-21 07:11:00,
2013-04-21 03:16:00,41.5,38.8,30.27,NW,315,0.0,0.0,90,0.00,CLR,,0.00,WeatherDisplay:10.37,2013-04-21 07:16:00,
2013-04-21 03:21:00,41.5,39.1,30.27,NW,315,0.0,0.0,91,0.00,CLR,,0.00,WeatherDisplay:10.37,2013-04-21 07:21:00,
2013-04-21 03:26:00,41.4,38.9,30.27,West,270,0.0,0.0,91,0.00,CLR,,0.00,WeatherDisplay:10.37,2013-04-21 07:26:00,
2013-04-21 03:31:00,41.2,38.8,30.28,North,0,0.0,0.0,91,0.00,CLR,,0.00,WeatherDisplay:10.37,2013-04-21 07:31:00,
2013-04-21 03:36:00,41.2,39.0,30.28,NW,315,0.0,0.0,92,0.00,CLR,,0.00,WeatherDisplay:10.37,2013-04-21 07:36:00,
2013-04-21 03:41:00,41.0,38.9,30.28,NW,315,0.0,0.0,92,0.00,CLR,,0.00,WeatherDisplay:10.37,2013-04-21 07:41:00,
2013-04-21 03:46:00,41.0,39.1,30.27,NW,315,0.0,0.0,93,0.00,CLR,,0.00,WeatherDisplay:10.37,2013-04-21 07:46:00,
2013-04-21 03:51:00,41.0,39.1,30.28,NW,315,0.0,0.0,93,0.00,CLR,,0.00,WeatherDisplay:10.37,2013-04-21 07:51:00,
2013-04-21 03:56:00,40.8,39.2,30.28,NW,315,0.0,0.0,94,0.00,CLR,,0.00,WeatherDisplay:10.37,2013-04-21 07:56:00,
2013-04-21 04:01:00,40.8,39.2,30.28,NW,315,0.0,0.0,94,0.00,CLR,,0.00,WeatherDisplay:10.37,2013-04-21 08:01:00,
2013-04-21 04:06:00,40.8,39.2,30.28,NW,315,0.0,0.0,94,0.00,CLR,,0.00,WeatherDisplay:10.37,2013-04-21 08:06:00,
2013-04-21 04:11:00,40.8,39.2,30.28,NW,315,0.0,0.0,94,0.00,CLR,,0.00,WeatherDisplay:10.37,2013-04-21 08:11:00,
2013-04-21 04:16:00,40.8,39.2,30.28,NW,315,0.0,0.0,94,0.00,CLR,,0.00,WeatherDisplay:10.37,2013-04-21 08:16:00,
2013-04-21 04:21:00,40.8,39.2,30.29,NW,315,0.0,0.0,94,0.00,CLR,,0.00,WeatherDisplay:10.37,2013-04-21 08:21:00,
2013-04-21 04:26:00,41.0,39.1,30.29,NW,315,0.0,0.0,93,0.00,CLR,,0.00,WeatherDisplay:10.37,2013-04-21 08:26:00,
2013-04-21 04:31:00,41.0,39.1,30.29,NW,315,0.0,0.0,93,0.00,CLR,,0.00,WeatherDisplay:10.37,2013-04-21 08:31:00,
2013-04-21 04:36:00,41.0,39.1,30.29,North,0,0.0,0.0,93,0.00,CLR,,0.00,WeatherDisplay:10.37,2013-04-21 08:36:00,
2013-04-21 04:41:00,41.2,39.6,30.29,WNW,292,0.0,0.0,94,0.00,CLR,,0.00,WeatherDisplay:10.37,2013-04-21 08:41:00,
2013-04-21 04:46:00,41.2,39.6,30.29,NW,315,0.0,0.0,94,0.00,CLR,,0.00,WeatherDisplay:10.37,2013-04-21 08:46:00,
2013-04-21 04:51:00,41.2,39.6,30.29,NW,315,0.0,0.0,94,0.00,CLR,,0.00,WeatherDisplay:10.37,2013-04-21 08:51:00,
2013-04-21 04:56:00,41.4,39.5,30.29,NW,315,0.0,0.0,93,0.00,CLR,,0.00,WeatherDisplay:10.37,2013-04-21 08:56:00,
2013-04-21 05:01:00,41.4,39.5,30.29,NW,315,0.0,0.0,93,0.00,CLR,,0.00,WeatherDisplay:10.37,2013-04-21 09:01:00,
2013-04-21 05:06:00,41.5,39.9,30.29,NW,315,0.0,0.0,94,0.00,CLR,,0.00,WeatherDisplay:10.37,2013-04-21 09:06:00,
2013-04-21 05:11:00,41.5,39.7,30.30,NW,315,0.0,0.0,93,0.00,CLR,,0.00,WeatherDisplay:10.37,2013-04-21 09:11:00,
2013-04-21 05:16:00,41.5,39.7,30.30,NW,315,0.0,0.0,93,0.00,CLR,,0.00,WeatherDisplay:10.37,2013-04-21 09:16:00,
2013-04-21 05:21:00,41.5,39.7,30.30,North,0,0.0,0.0,93,0.00,CLR,,0.00,WeatherDisplay:10.37,2013-04-21 09:21:00,
2013-04-21 05:26:00,41.5,39.7,30.30,North,0,0.0,0.0,93,0.00,CLR,,0.00,WeatherDisplay:10.37,2013-04-21 09:26:00,
2013-04-21 05:31:00,41.5,39.7,30.30,North,0,1.1,0.0,93,0.00,CLR,,0.00,WeatherDisplay:10.37,2013-04-21 09:31:00,
2013-04-21 05:36:00,41.5,39.7,30.30,NW,315,0.0,0.0,93,0.00,CLR,,0.00,WeatherDisplay:10.37,2013-04-21 09:36:00,
2013-04-21 05:41:00,41.5,39.4,30.30,North,0,0.0,0.0,92,0.00,CLR,,0.00,WeatherDisplay:10.37,2013-04-21 09:41:00,
2013-04-21 05:46:00,41.5,39.4,30.30,North,0,1.1,0.0,92,0.00,CLR,,0.00,WeatherDisplay:10.37,2013-04-21 09:46:00,
2013-04-21 05:51:00,41.5,39.4,30.30,North,0,0.0,0.0,92,0.00,CLR,,0.00,WeatherDisplay:10.37,2013-04-21 09:51:00,
2013-04-21 05:56:00,41.5,39.4,30.30,NNW,338,1.1,0.0,92,0.00,CLR,,0.00,WeatherDisplay:10.37,2013-04-21 09:56:00,
2013-04-21 06:01:00,41.7,39.6,30.31,North,0,0.0,0.0,92,0.00,CLR,,0.00,WeatherDisplay:10.37,2013-04-21 10:01:00,
2013-04-21 06:06:00,41.7,39.6,30.30,North,0,0.0,0.0,92,0.00,CLR,,0.00,WeatherDisplay:10.37,2013-04-21 10:06:00,
2013-04-21 06:11:00,41.7,39.6,30.31,North,0,1.1,0.0,92,0.00,CLR,,0.00,WeatherDisplay:10.37,2013-04-21 10:11:00,
2013-04-21 06:16:00,41.9,39.7,30.31,NW,315,0.0,0.0,92,0.00,CLR,,0.00,WeatherDisplay:10.37,2013-04-21 10:16:00,
2013-04-21 06:21:00,41.9,40.0,30.31,NW,315,0.0,0.0,93,0.00,CLR,,0.00,WeatherDisplay:10.37,2013-04-21 10:21:00,
2013-04-21 06:26:00,42.1,40.2,30.31,NW,315,0.0,0.0,93,0.00,CLR,,0.00,WeatherDisplay:10.37,2013-04-21 10:26:00,
2013-04-21 06:31:00,42.3,40.4,30.32,NW,315,0.0,0.0,93,0.00,CLR,,0.00,WeatherDisplay:10.37,2013-04-21 10:31:00,
2013-04-21 06:36:00,42.3,40.1,30.32,North,0,0.0,0.0,92,0.00,CLR,,0.00,WeatherDisplay:10.37,2013-04-21 10:36:00,
2013-04-21 06:41:00,42.4,40.6,30.32,North,0,0.0,0.0,93,0.00,CLR,,0.00,WeatherDisplay:10.37,2013-04-21 10:41:00,
2013-04-21 06:46:00,42.4,40.6,30.32,North,0,1.1,0.0,93,0.00,CLR,,0.00,WeatherDisplay:10.37,2013-04-21 10:46:00,
2013-04-21 06:51:00,42.4,40.6,30.33,North,0,0.0,0.0,93,0.00,CLR,,0.00,WeatherDisplay:10.37,2013-04-21 10:51:00,
2013-04-21 06:56:00,42.4,40.3,30.32,North,0,1.1,0.0,92,0.00,CLR,,0.00,WeatherDisplay:10.37,2013-04-21 10:56:00,
2013-04-21 07:01:00,42.6,40.5,30.32,SW,225,0.0,0.0,92,0.00,CLR,,0.00,WeatherDisplay:10.37,2013-04-21 11:01:00,
2013-04-21 07:06:00,42.6,40.5,30.33,NW,315,1.1,0.0,92,0.00,CLR,,0.00,WeatherDisplay:10.37,2013-04-21 11:06:00,
2013-04-21 07:11:00,42.6,40.2,30.33,North,0,0.0,0.0,91,0.00,CLR,,0.00,WeatherDisplay:10.37,2013-04-21 11:11:00,
2013-04-21 07:16:00,42.8,40.1,30.33,North,0,0.0,0.0,90,0.00,CLR,,0.00,WeatherDisplay:10.37,2013-04-21 11:16:00,
2013-04-21 07:21:00,42.8,40.1,30.33,NW,315,1.1,0.0,90,0.00,CLR,,0.00,WeatherDisplay:10.37,2013-04-21 11:21:00,
2013-04-21 07:26:00,43.0,40.2,30.33,North,0,1.1,0.0,90,0.00,CLR,,0.00,WeatherDisplay:10.37,2013-04-21 11:26:00,
2013-04-21 07:31:00,43.0,40.2,30.34,North,0,0.0,0.0,90,0.00,CLR,,0.00,WeatherDisplay:10.37,2013-04-21 11:31:00,
2013-04-21 07:36:00,43.2,40.4,30.34,North,0,1.1,0.0,90,0.00,CLR,,0.00,WeatherDisplay:10.37,2013-04-21 11:36:00,
2013-04-21 07:41:00,43.3,40.3,30.34,North,0,0.0,0.0,89,0.00,CLR,,0.00,WeatherDisplay:10.37,2013-04-21 11:41:00,
2013-04-21 07:46:00,43.7,40.4,30.34,NE,45,5.8,5.8,88,0.00,CLR,,0.00,WeatherDisplay:10.37,2013-04-21 11:46:00,
2013-04-21 07:51:00,44.2,40.3,30.34,North,0,2.3,0.0,86,0.00,CLR,,0.00,WeatherDisplay:10.37,2013-04-21 11:51:00,
2013-04-21 07:56:00,44.4,40.2,30.34,NW,315,8.1,0.0,85,0.00,CLR,,0.00,WeatherDisplay:10.37,2013-04-21 11:56:00,
2013-04-21 08:01:00,45.0,40.1,30.34,North,0,2.3,2.7,83,0.00,CLR,,0.00,WeatherDisplay:10.37,2013-04-21 12:01:00,
2013-04-21 08:06:00,45.3,39.8,30.34,North,0,2.3,0.0,81,0.00,CLR,,0.00,WeatherDisplay:10.37,2013-04-21 12:06:00,
2013-04-21 08:11:00,45.5,40.0,30.34,North,0,1.1,1.3,81,0.00,CLR,,0.00,WeatherDisplay:10.37,2013-04-21 12:11:00,
2013-04-21 08:16:00,45.9,40.4,30.34,North,0,4.6,4.6,81,0.00,CLR,,0.00,WeatherDisplay:10.37,2013-04-21 12:16:00,
2013-04-21 08:21:00,46.0,40.2,30.35,NW,315,4.6,4.6,80,0.00,CLR,,0.00,WeatherDisplay:10.37,2013-04-21 12:21:00,
2013-04-21 08:26:00,46.2,40.1,30.35,NW,315,2.3,2.3,79,0.00,CLR,,0.00,WeatherDisplay:10.37,2013-04-21 12:26:00,
2013-04-21 08:31:00,46.4,39.9,30.35,North,0,4.6,4.6,78,0.00,CLR,,0.00,WeatherDisplay:10.37,2013-04-21 12:31:00,
2013-04-21 08:36:00,46.8,39.9,30.35,West,270,2.3,2.3,77,0.00,CLR,,0.00,WeatherDisplay:10.37,2013-04-21 12:36:00,
2013-04-21 08:41:00,46.8,39.9,30.35,North,0,2.7,0.0,77,0.00,CLR,,0.00,WeatherDisplay:10.37,2013-04-21 12:41:00,
2013-04-21 08:46:00,46.9,40.1,30.35,NNW,338,4.6,4.6,77,0.00,CLR,,0.00,WeatherDisplay:10.37,2013-04-21 12:46:00,
2013-04-21 08:51:00,46.9,40.1,30.35,North,0,4.6,4.6,77,0.00,CLR,,0.00,WeatherDisplay:10.37,2013-04-21 12:51:00,
2013-04-21 08:56:00,47.1,39.9,30.35,North,0,4.6,4.6,76,0.00,CLR,,0.00,WeatherDisplay:10.37,2013-04-21 12:56:00,
2013-04-21 09:01:00,47.5,40.3,30.36,North,0,4.6,4.6,76,0.00,CLR,,0.00,WeatherDisplay:10.37,2013-04-21 13:01:00,
2013-04-21 09:06:00,47.7,40.1,30.36,North,0,4.6,4.6,75,0.00,CLR,,0.00,WeatherDisplay:10.37,2013-04-21 13:06:00,
2013-04-21 09:11:00,48.0,40.5,30.35,North,0,4.6,4.6,75,0.00,CLR,,0.00,WeatherDisplay:10.37,2013-04-21 13:11:00,
2013-04-21 09:16:00,48.2,40.3,30.36,NE,45,5.8,5.8,74,0.00,CLR,,0.00,WeatherDisplay:10.37,2013-04-21 13:16:00,
2013-04-21 09:21:00,48.2,40.3,30.36,NW,315,5.8,5.8,74,0.00,CLR,,0.00,WeatherDisplay:10.37,2013-04-21 13:21:00,
2013-04-21 09:26:00,48.4,40.5,30.36,North,0,4.6,4.6,74,0.00,CLR,,0.00,WeatherDisplay:10.37,2013-04-21 13:26:00,
2013-04-21 09:31:00,48.7,40.8,30.36,West,270,4.6,4.6,74,0.00,CLR,,0.00,WeatherDisplay:10.37,2013-04-21 13:31:00,
2013-04-21 09:36:00,48.9,39.9,30.37,NE,45,6.9,6.9,71,0.00,CLR,,0.00,WeatherDisplay:10.37,2013-04-21 13:36:00,
2013-04-21 09:41:00,48.9,40.3,30.37,North,0,4.6,4.6,72,0.00,CLR,,0.00,WeatherDisplay:10.37,2013-04-21 13:41:00,
2013-04-21 09:46:00,49.1,40.5,30.37,NW,315,5.8,5.8,72,0.00,CLR,,0.00,WeatherDisplay:10.37,2013-04-21 13:46:00,
2013-04-21 09:51:00,49.5,40.4,30.37,North,0,5.8,5.8,71,0.00,CLR,,0.00,WeatherDisplay:10.37,2013-04-21 13:51:00,
2013-04-21 09:56:00,50.0,41.0,30.37,West,270,4.6,4.6,71,0.00,CLR,,0.00,WeatherDisplay:10.37,2013-04-21 13:56:00,
2013-04-21 10:01:00,50.5,41.5,30.37,North,0,6.9,6.9,71,0.00,CLR,,0.00,WeatherDisplay:10.37,2013-04-21 14:01:00,
2013-04-21 10:06:00,51.4,42.3,30.37,West,270,7.0,7.0,71,0.00,CLR,,0.00,WeatherDisplay:10.37,2013-04-21 14:06:00,
2013-04-21 10:11:00,52.2,42.3,30.37,NW,315,2.3,2.3,69,0.00,CLR,,0.00,WeatherDisplay:10.37,2013-04-21 14:11:00,
2013-04-21 10:16:00,52.3,42.1,30.37,South,180,4.6,4.6,68,0.00,CLR,,0.00,WeatherDisplay:10.37,2013-04-21 14:16:00,
2013-04-21 10:21:00,52.5,41.5,30.37,NE,45,5.8,5.8,66,0.00,CLR,,0.00,WeatherDisplay:10.37,2013-04-21 14:21:00,
2013-04-21 10:26:00,52.3,40.9,30.37,North,0,8.1,8.1,65,0.00,CLR,,0.00,WeatherDisplay:10.37,2013-04-21 14:26:00,
2013-04-21 10:31:00,52.3,40.9,30.37,North,0,6.9,6.9,65,0.00,CLR,,0.00,WeatherDisplay:10.37,2013-04-21 14:31:00,
2013-04-21 10:36:00,52.5,41.1,30.37,East,90,6.9,6.9,65,0.00,CLR,,0.00,WeatherDisplay:10.37,2013-04-21 14:36:00,
2013-04-21 10:41:00,53.1,42.0,30.38,North,0,4.6,4.6,66,0.00,CLR,,0.00,WeatherDisplay:10.37,2013-04-21 14:41:00,
2013-04-21 10:46:00,53.4,41.9,30.38,NE,45,4.6,4.6,65,0.00,CLR,,0.00,WeatherDisplay:10.37,2013-04-21 14:46:00,
2013-04-21 10:51:00,54.0,42.1,30.37,NW,315,6.9,6.9,64,0.00,CLR,,0.00,WeatherDisplay:10.37,2013-04-21 14:51:00,
2013-04-21 10:56:00,54.7,43.1,30.37,SE,135,1.1,4.4,65,0.00,CLR,,0.00,WeatherDisplay:10.37,2013-04-21 14:56:00,
2013-04-21 11:01:00,55.0,42.7,30.37,NE,45,6.9,6.9,63,0.00,CLR,,0.00,WeatherDisplay:10.37,2013-04-21 15:01:00,
2013-04-21 11:06:00,55.6,44.0,30.38,West,270,5.8,5.8,65,0.00,CLR,,0.00,WeatherDisplay:10.37,2013-04-21 15:06:00,
2013-04-21 11:11:00,55.8,43.8,30.38,NE,45,5.8,5.8,64,0.00,CLR,,0.00,WeatherDisplay:10.37,2013-04-21 15:11:00,
2013-04-21 11:16:00,56.3,44.7,30.38,North,0,5.8,5.8,65,0.00,CLR,,0.00,WeatherDisplay:10.37,2013-04-21 15:16:00,
2013-04-21 11:21:00,56.5,44.4,30.38,North,0,4.6,4.6,64,0.00,CLR,,0.00,WeatherDisplay:10.37,2013-04-21 15:21:00,
2013-04-21 11:26:00,57.0,45.0,30.38,East,90,8.1,8.1,64,0.00,CLR,,0.00,WeatherDisplay:10.37,2013-04-21 15:26:00,
2013-04-21 11:31:00,57.0,43.7,30.38,East,90,10.4,10.4,61,0.00,CLR,,0.00,WeatherDisplay:10.37,2013-04-21 15:31:00,
2013-04-21 11:36:00,57.9,44.5,30.38,SE,135,5.8,0.0,61,0.00,CLR,,0.00,WeatherDisplay:10.37,2013-04-21 15:36:00,
2013-04-21 11:41:00,59.0,45.6,30.38,North,0,6.9,6.9,61,0.00,CLR,,0.00,WeatherDisplay:10.37,2013-04-21 15:41:00,
2013-04-21 11:46:00,59.7,45.4,30.37,NW,315,6.9,6.9,59,0.00,CLR,,0.00,WeatherDisplay:10.37,2013-04-21 15:46:00,
2013-04-21 11:51:00,60.8,45.9,30.37,North,0,4.6,4.6,58,0.00,CLR,,0.00,WeatherDisplay:10.37,2013-04-21 15:51:00,
2013-04-21 11:56:00,61.5,46.6,30.37,SW,225,5.8,5.8,58,0.00,CLR,,0.00,WeatherDisplay:10.37,2013-04-21 15:56:00,
2013-04-21 12:01:00,62.4,46.5,30.37,SE,135,6.9,6.9,56,0.00,CLR,,0.00,WeatherDisplay:10.37,2013-04-21 16:01:00,
2013-04-21 12:06:00,63.9,47.4,30.36,North,0,6.9,6.9,55,0.00,CLR,,0.00,WeatherDisplay:10.37,2013-04-21 16:06:00,
2013-04-21 12:11:00,63.9,45.9,30.36,East,90,5.8,5.8,52,0.00,CLR,,0.00,WeatherDisplay:10.37,2013-04-21 16:11:00,
2013-04-21 12:16:00,64.2,46.7,30.36,NE,45,4.6,4.6,53,0.00,CLR,,0.00,WeatherDisplay:10.37,2013-04-21 16:16:00,
2013-04-21 12:21:00,64.4,47.9,30.36,South,180,8.1,8.1,55,0.00,CLR,,0.00,WeatherDisplay:10.37,2013-04-21 16:21:00,
2013-04-21 12:26:00,64.9,48.4,30.35,SSE,158,4.6,4.6,55,0.00,CLR,,0.00,WeatherDisplay:10.37,2013-04-21 16:26:00,
2013-04-21 12:31:00,65.1,46.5,30.36,East,90,10.4,10.4,51,0.00,CLR,,0.00,WeatherDisplay:10.37,2013-04-21 16:31:00,
2013-04-21 12:36:00,65.1,47.1,30.35,North,0,5.8,5.8,52,0.00,CLR,,0.00,WeatherDisplay:10.37,2013-04-21 16:36:00,
2013-04-21 12:41:00,65.3,45.6,30.35,West,270,10.4,10.4,49,0.00,CLR,,0.00,WeatherDisplay:10.37,2013-04-21 16:41:00,
2013-04-21 12:46:00,64.9,46.9,30.35,East,90,5.8,5.8,52,0.00,CLR,,0.00,WeatherDisplay:10.37,2013-04-21 16:46:00,
2013-04-21 12:51:00,65.5,45.8,30.34,SE,135,6.9,6.9,49,0.00,CLR,,0.00,WeatherDisplay:10.37,2013-04-21 16:51:00,
2013-04-21 12:56:00,65.8,47.7,30.34,North,0,5.8,5.8,52,0.00,CLR,,0.00,WeatherDisplay:10.37,2013-04-21 16:56:00,
2013-04-21 13:01:00,66.6,46.3,30.34,South,180,5.8,5.8,48,0.00,CLR,,0.00,WeatherDisplay:10.37,2013-04-21 17:01:00,
2013-04-21 13:06:00,67.3,46.9,30.34,NE,45,8.1,8.1,48,0.00,CLR,,0.00,WeatherDisplay:10.37,2013-04-21 17:06:00,
2013-04-21 13:11:00,67.6,47.2,30.34,South,180,5.8,5.8,48,0.00,CLR,,0.00,WeatherDisplay:10.37,2013-04-21 17:11:00,
2013-04-21 13:16:00,68.4,47.3,30.33,North,0,6.9,6.9,47,0.00,CLR,,0.00,WeatherDisplay:10.37,2013-04-21 17:16:00,
2013-04-21 13:21:00,68.7,46.5,30.33,North,0,8.1,8.1,45,0.00,CLR,,0.00,WeatherDisplay:10.37,2013-04-21 17:21:00,
2013-04-21 13:26:00,68.5,45.1,30.33,South,180,5.8,7.0,43,0.00,CLR,,0.00,WeatherDisplay:10.37,2013-04-21 17:26:00,
2013-04-21 13:31:00,68.0,44.7,30.33,West,270,5.8,5.8,43,0.00,CLR,,0.00,WeatherDisplay:10.37,2013-04-21 17:31:00,
2013-04-21 13:36:00,68.5,46.3,30.32,South,180,5.8,5.8,45,0.00,CLR,,0.00,WeatherDisplay:10.37,2013-04-21 17:36:00,
2013-04-21 13:41:00,68.5,44.5,30.32,SW,225,4.6,0.0,42,0.00,CLR,,0.00,WeatherDisplay:10.37,2013-04-21 17:41:00,
2013-04-21 13:46:00,68.5,45.1,30.32,WSW,248,4.6,4.6,43,0.00,CLR,,0.00,WeatherDisplay:10.37,2013-04-21 17:46:00,
2013-04-21 13:51:00,69.3,46.4,30.32,West,270,8.1,8.1,44,0.00,CLR,,0.00,WeatherDisplay:10.37,2013-04-21 17:51:00,
2013-04-21 13:56:00,69.6,46.1,30.31,WSW,248,5.8,5.8,43,0.00,CLR,,0.00,WeatherDisplay:10.37,2013-04-21 17:56:00,
2013-04-21 14:01:00,69.1,43.7,30.31,East,90,5.8,5.8,40,0.00,CLR,,0.00,WeatherDisplay:10.37,2013-04-21 18:01:00,
2013-04-21 14:06:00,68.9,44.9,30.31,West,270,6.9,6.9,42,0.00,CLR,,0.00,WeatherDisplay:10.37,2013-04-21 18:06:00,
2013-04-21 14:11:00,68.9,45.5,30.30,West,270,8.1,8.1,43,0.00,CLR,,0.00,WeatherDisplay:10.37,2013-04-21 18:11:00,
2013-04-21 14:16:00,69.3,45.8,30.31,SE,135,5.8,5.8,43,0.00,CLR,,0.00,WeatherDisplay:10.37,2013-04-21 18:16:00,
2013-04-21 14:21:00,69.6,44.9,30.30,NE,45,4.6,0.0,41,0.00,CLR,,0.00,WeatherDisplay:10.37,2013-04-21 18:21:00,
2013-04-21 14:26:00,69.8,45.0,30.30,NW,315,5.8,5.8,41,0.00,CLR,,0.00,WeatherDisplay:10.37,2013-04-21 18:26:00,
2013-04-21 14:31:00,70.3,46.2,30.30,NE,45,10.1,10.1,42,0.00,CLR,,0.00,WeatherDisplay:10.37,2013-04-21 18:31:00,
2013-04-21 14:36:00,70.0,45.8,30.30,WSW,248,4.6,4.6,42,0.00,CLR,,0.00,WeatherDisplay:10.37,2013-04-21 18:36:00,
2013-04-21 14:41:00,70.3,44.9,30.29,West,270,10.4,10.4,40,0.00,CLR,,0.00,WeatherDisplay:10.37,2013-04-21 18:41:00,
2013-04-21 14:46:00,70.3,45.5,30.29,South,180,10.4,10.4,41,0.00,CLR,,0.00,WeatherDisplay:10.37,2013-04-21 18:46:00,
2013-04-21 14:51:00,70.3,45.5,30.29,South,180,10.4,10.4,41,0.00,CLR,,0.00,WeatherDisplay:10.37,2013-04-21 18:51:00,
2013-04-21 14:56:00,70.7,43.8,30.29,East,90,8.1,8.1,38,0.00,CLR,,0.00,WeatherDisplay:10.37,2013-04-21 18:56:00,
2013-04-21 15:01:00,70.5,43.0,30.28,NW,315,5.8,5.8,37,0.00,CLR,,0.00,WeatherDisplay:10.37,2013-04-21 19:01:00,
2013-04-21 15:06:00,70.5,44.4,30.28,North,0,2.3,2.7,39,0.00,CLR,,0.00,WeatherDisplay:10.37,2013-04-21 19:06:00,
2013-04-21 15:11:00,71.1,43.5,30.27,NE,45,8.1,8.1,37,0.00,CLR,,0.00,WeatherDisplay:10.37,2013-04-21 19:11:00,
2013-04-21 15:16:00,70.7,42.4,30.26,South,180,11.5,11.5,36,0.00,CLR,,0.00,WeatherDisplay:10.37,2013-04-21 19:16:00,
2013-04-21 15:21:00,70.9,47.3,30.26,NW,315,2.3,2.3,43,0.00,CLR,,0.00,WeatherDisplay:10.37,2013-04-21 19:21:00,
2013-04-21 15:26:00,71.4,44.5,30.26,NE,45,5.8,5.8,38,0.00,CLR,,0.00,WeatherDisplay:10.37,2013-04-21 19:26:00,
2013-04-21 15:31:00,71.4,43.8,30.26,NW,315,5.8,5.8,37,0.00,CLR,,0.00,WeatherDisplay:10.37,2013-04-21 19:31:00,
2013-04-21 15:36:00,71.8,44.1,30.26,NE,45,8.1,8.1,37,0.00,CLR,,0.00,WeatherDisplay:10.37,2013-04-21 19:36:00,
2013-04-21 15:41:00,71.8,44.1,30.26,North,0,6.9,6.9,37,0.00,CLR,,0.00,WeatherDisplay:10.37,2013-04-21 19:41:00,
2013-04-21 15:46:00,71.8,45.5,30.26,NW,315,6.9,6.9,39,0.00,CLR,,0.00,WeatherDisplay:10.37,2013-04-21 19:46:00,
2013-04-21 15:51:00,71.6,42.5,30.25,West,270,8.1,8.1,35,0.00,CLR,,0.00,WeatherDisplay:10.37,2013-04-21 19:51:00,
2013-04-21 15:56:00,70.9,41.9,30.25,West,270,8.1,8.1,35,0.00,CLR,,0.00,WeatherDisplay:10.37,2013-04-21 19:56:00,
2013-04-21 16:01:00,70.9,44.0,30.24,SE,135,2.3,4.4,38,0.00,CLR,,0.00,WeatherDisplay:10.37,2013-04-21 20:01:00,
2013-04-21 16:06:00,70.9,44.7,30.24,West,270,10.4,10.4,39,0.00,CLR,,0.00,WeatherDisplay:10.37,2013-04-21 20:06:00,
2013-04-21 16:11:00,71.1,45.5,30.24,SE,135,5.8,5.8,40,0.00,CLR,,0.00,WeatherDisplay:10.37,2013-04-21 20:11:00,
2013-04-21 16:16:00,70.7,43.1,30.24,East,90,10.4,10.4,37,0.00,CLR,,0.00,WeatherDisplay:10.37,2013-04-21 20:16:00,
2013-04-21 16:21:00,70.7,44.5,30.24,NW,315,6.9,6.9,39,0.00,CLR,,0.00,WeatherDisplay:10.37,2013-04-21 20:21:00,
2013-04-21 16:26:00,71.1,44.2,30.25,South,180,5.8,5.8,38,0.00,CLR,,0.00,WeatherDisplay:10.37,2013-04-21 20:26:00,
2013-04-21 16:31:00,71.2,44.3,30.24,North,0,5.8,0.0,38,0.00,CLR,,0.00,WeatherDisplay:10.37,2013-04-21 20:31:00,
2013-04-21 16:36:00,71.2,44.3,30.25,South,180,6.9,6.9,38,0.00,CLR,,0.00,WeatherDisplay:10.37,2013-04-21 20:36:00,
2013-04-21 16:41:00,71.1,44.2,30.24,NW,315,5.8,5.8,38,0.00,CLR,,0.00,WeatherDisplay:10.37,2013-04-21 20:41:00,
2013-04-21 16:46:00,71.2,45.7,30.24,NE,45,2.3,2.7,40,0.00,CLR,,0.00,WeatherDisplay:10.37,2013-04-21 20:46:00,
2013-04-21 16:51:00,70.9,44.0,30.24,SW,225,8.1,8.1,38,0.00,CLR,,0.00,WeatherDisplay:10.37,2013-04-21 20:51:00,
2013-04-21 16:56:00,70.9,45.3,30.24,NE,45,5.8,5.8,40,0.00,CLR,,0.00,WeatherDisplay:10.37,2013-04-21 20:56:00,
2013-04-21 17:01:00,70.9,44.7,30.23,NE,45,2.3,2.7,39,0.00,CLR,,0.00,WeatherDisplay:10.37,2013-04-21 21:01:00,
2013-04-21 17:06:00,70.3,44.2,30.23,East,90,5.8,5.8,39,0.00,CLR,,0.00,WeatherDisplay:10.37,2013-04-21 21:06:00,
2013-04-21 17:11:00,69.8,43.7,30.23,North,0,2.3,0.0,39,0.00,CLR,,0.00,WeatherDisplay:10.37,2013-04-21 21:11:00,
2013-04-21 17:16:00,69.4,46.0,30.23,East,90,4.6,4.6,43,0.00,CLR,,0.00,WeatherDisplay:10.37,2013-04-21 21:16:00,
2013-04-21 17:21:00,69.4,44.7,30.23,NE,45,10.4,10.4,41,0.00,CLR,,0.00,WeatherDisplay:10.37,2013-04-21 21:21:00,
2013-04-21 17:26:00,69.6,44.2,30.22,SW,225,4.6,5.7,40,0.00,CLR,,0.00,WeatherDisplay:10.37,2013-04-21 21:26:00,
2013-04-21 17:31:00,69.6,45.5,30.22,North,0,2.3,2.3,42,0.00,CLR,,0.00,WeatherDisplay:10.37,2013-04-21 21:31:00,
2013-04-21 17:36:00,69.6,45.5,30.23,NW,315,4.6,4.6,42,0.00,CLR,,0.00,WeatherDisplay:10.37,2013-04-21 21:36:00,
2013-04-21 17:41:00,69.1,45.6,30.23,North,0,4.6,4.6,43,0.00,CLR,,0.00,WeatherDisplay:10.37,2013-04-21 21:41:00,
2013-04-21 17:46:00,68.7,44.7,30.23,NW,315,4.6,0.0,42,0.00,CLR,,0.00,WeatherDisplay:10.37,2013-04-21 21:46:00,
2013-04-21 17:51:00,68.7,45.3,30.23,NE,45,5.8,5.8,43,0.00,CLR,,0.00,WeatherDisplay:10.37,2013-04-21 21:51:00,
2013-04-21 17:56:00,68.4,45.0,30.23,NE,45,4.6,4.6,43,0.00,CLR,,0.00,WeatherDisplay:10.37,2013-04-21 21:56:00,
2013-04-21 18:01:00,68.2,44.8,30.23,North,0,4.6,0.0,43,0.00,CLR,,0.00,WeatherDisplay:10.37,2013-04-21 22:01:00,
2013-04-21 18:06:00,68.2,44.8,30.23,East,90,8.1,8.1,43,0.00,CLR,,0.00,WeatherDisplay:10.37,2013-04-21 22:06:00,
2013-04-21 18:11:00,68.0,44.7,30.23,North,0,2.3,0.0,43,0.00,CLR,,0.00,WeatherDisplay:10.37,2013-04-21 22:11:00,
2013-04-21 18:16:00,67.6,46.1,30.23,NW,315,5.8,5.8,46,0.00,CLR,,0.00,WeatherDisplay:10.37,2013-04-21 22:16:00,
2013-04-21 18:21:00,67.1,46.2,30.23,West,270,1.1,0.0,47,0.00,CLR,,0.00,WeatherDisplay:10.37,2013-04-21 22:21:00,
2013-04-21 18:26:00,66.7,47.0,30.23,North,0,0.0,0.0,49,0.00,CLR,,0.00,WeatherDisplay:10.37,2013-04-21 22:26:00,
2013-04-21 18:31:00,66.4,49.2,30.23,NW,315,0.0,0.0,54,0.00,CLR,,0.00,WeatherDisplay:10.37,2013-04-21 22:31:00,
2013-04-21 18:36:00,66.2,48.6,30.23,West,270,0.0,0.0,53,0.00,CLR,,0.00,WeatherDisplay:10.37,2013-04-21 22:36:00,
2013-04-21 18:41:00,65.8,47.2,30.23,North,0,5.8,0.0,51,0.00,CLR,,0.00,WeatherDisplay:10.37,2013-04-21 22:41:00,
2013-04-21 18:46:00,65.7,47.0,30.23,NW,315,2.3,0.0,51,0.00,CLR,,0.00,WeatherDisplay:10.37,2013-04-21 22:46:00,
2013-04-21 18:51:00,65.5,46.9,30.23,North,0,2.3,2.7,51,0.00,CLR,,0.00,WeatherDisplay:10.37,2013-04-21 22:51:00,
2013-04-21 18:56:00,65.1,47.6,30.23,North,0,1.1,0.0,53,0.00,CLR,,0.00,WeatherDisplay:10.37,2013-04-21 22:56:00,
2013-04-21 19:01:00,64.9,48.4,30.23,North,0,1.1,0.0,55,0.00,CLR,,0.00,WeatherDisplay:10.37,2013-04-21 23:01:00,
2013-04-21 19:06:00,64.6,48.0,30.23,North,0,0.0,0.0,55,0.00,CLR,,0.00,WeatherDisplay:10.37,2013-04-21 23:06:00,
2013-04-21 19:11:00,64.4,47.9,30.24,North,0,0.0,0.0,55,0.00,CLR,,0.00,WeatherDisplay:10.37,2013-04-21 23:11:00,
2013-04-21 19:16:00,64.2,48.2,30.24,South,180,1.1,0.0,56,0.00,CLR,,0.00,WeatherDisplay:10.37,2013-04-21 23:16:00,
2013-04-21 19:21:00,64.2,47.2,30.24,South,180,0.0,0.0,54,0.00,CLR,,0.00,WeatherDisplay:10.37,2013-04-21 23:21:00,
2013-04-21 19:27:00,64.2,47.2,30.24,NW,315,4.6,0.0,54,0.00,CLR,,0.00,WeatherDisplay:10.37,2013-04-21 23:27:00,
2013-04-21 19:32:00,64.2,47.7,30.24,North,0,0.0,0.0,55,0.00,CLR,,0.00,WeatherDisplay:10.37,2013-04-21 23:32:00,
2013-04-21 19:37:00,64.2,46.7,30.24,North,0,2.3,0.0,53,0.00,CLR,,0.00,WeatherDisplay:10.37,2013-04-21 23:37:00,
2013-04-21 19:42:00,64.2,46.7,30.25,NW,315,2.3,2.3,53,0.00,CLR,,0.00,WeatherDisplay:10.37,2013-04-21 23:42:00,
2013-04-21 19:47:00,63.9,46.9,30.25,North,0,1.3,0.0,54,0.00,CLR,,0.00,WeatherDisplay:10.37,2013-04-21 23:47:00,
2013-04-21 19:52:00,63.5,47.0,30.25,NE,45,0.0,1.3,55,0.00,CLR,,0.00,WeatherDisplay:10.37,2013-04-21 23:52:00,
2013-04-21 19:57:00,63.3,46.4,30.25,North,0,2.3,2.3,54,0.00,CLR,,0.00,WeatherDisplay:10.37,2013-04-21 23:57:00,
2013-04-21 20:02:00,62.8,46.8,30.25,North,0,2.3,0.0,56,0.00,CLR,,0.00,WeatherDisplay:10.37,2013-04-22 00:02:00,
2013-04-21 20:07:00,62.4,47.4,30.25,North,0,0.0,0.0,58,0.00,CLR,,0.00,WeatherDisplay:10.37,2013-04-22 00:07:00,
2013-04-21 20:12:00,62.1,47.6,30.25,North,0,0.0,0.0,59,0.00,CLR,,0.00,WeatherDisplay:10.37,2013-04-22 00:12:00,
2013-04-21 20:17:00,61.3,48.2,30.25,North,0,0.0,0.0,62,0.00,CLR,,0.00,WeatherDisplay:10.37,2013-04-22 00:17:00,
2013-04-21 20:22:00,60.8,48.1,30.26,North,0,0.0,0.0,63,0.00,CLR,,0.00,WeatherDisplay:10.37,2013-04-22 00:22:00,
2013-04-21 20:27:00,60.1,48.3,30.26,North,0,0.0,0.0,65,0.00,CLR,,0.00,WeatherDisplay:10.37,2013-04-22 00:27:00,
2013-04-21 20:32:00,59.5,47.8,30.26,North,0,0.0,0.0,65,0.00,CLR,,0.00,WeatherDisplay:10.37,2013-04-22 00:32:00,
2013-04-21 20:37:00,58.8,48.7,30.26,North,0,0.0,0.0,69,0.00,CLR,,0.00,WeatherDisplay:10.37,2013-04-22 00:37:00,
2013-04-21 20:42:00,58.1,48.4,30.26,North,0,0.0,0.0,70,0.00,CLR,,0.00,WeatherDisplay:10.37,2013-04-22 00:42:00,
2013-04-21 20:47:00,57.4,48.1,30.26,North,0,0.0,0.0,71,0.00,CLR,,0.00,WeatherDisplay:10.37,2013-04-22 00:47:00,
2013-04-21 20:52:00,56.7,48.1,30.26,North,0,0.0,0.0,73,0.00,CLR,,0.00,WeatherDisplay:10.37,2013-04-22 00:52:00,
2013-04-21 20:57:00,56.1,48.3,30.26,North,0,0.0,0.0,75,0.00,CLR,,0.00,WeatherDisplay:10.37,2013-04-22 00:57:00,
2013-04-21 21:02:00,55.6,47.8,30.26,North,0,0.0,0.0,75,0.00,CLR,,0.00,WeatherDisplay:10.37,2013-04-22 01:02:00,
2013-04-21 21:07:00,55.0,47.3,30.27,North,0,0.0,0.0,75,0.00,CLR,,0.00,WeatherDisplay:10.37,2013-04-22 01:07:00,
2013-04-21 21:12:00,54.7,46.9,30.27,North,0,0.0,0.0,75,0.00,CLR,,0.00,WeatherDisplay:10.37,2013-04-22 01:12:00,
2013-04-21 21:17:00,54.3,47.3,30.27,North,0,0.0,0.0,77,0.00,CLR,,0.00,WeatherDisplay:10.37,2013-04-22 01:17:00,
2013-04-21 21:22:00,54.0,46.9,30.28,North,0,0.0,0.0,77,0.00,CLR,,0.00,WeatherDisplay:10.37,2013-04-22 01:22:00,
2013-04-21 21:27:00,53.6,47.2,30.28,North,0,0.0,0.0,79,0.00,CLR,,0.00,WeatherDisplay:10.37,2013-04-22 01:27:00,
2013-04-21 21:32:00,53.2,47.2,30.28,North,0,0.0,0.0,80,0.00,CLR,,0.00,WeatherDisplay:10.37,2013-04-22 01:32:00,
2013-04-21 21:37:00,53.2,47.2,30.28,North,0,0.0,0.0,80,0.00,CLR,,0.00,WeatherDisplay:10.37,2013-04-22 01:37:00,
2013-04-21 21:42:00,53.2,47.2,30.29,North,0,0.0,0.0,80,0.00,CLR,,0.00,WeatherDisplay:10.37,2013-04-22 01:42:00,
2013-04-21 21:47:00,53.2,47.2,30.29,SW,225,0.0,0.0,80,0.00,CLR,,0.00,WeatherDisplay:10.37,2013-04-22 01:47:00,
2013-04-21 21:52:00,53.6,47.6,30.29,SW,225,0.0,0.0,80,0.00,CLR,,0.00,WeatherDisplay:10.37,2013-04-22 01:52:00,
2013-04-21 21:57:00,53.8,47.8,30.29,SW,225,0.0,0.0,80,0.00,CLR,,0.00,WeatherDisplay:10.37,2013-04-22 01:57:00,
2013-04-21 22:02:00,53.8,47.1,30.29,West,270,0.0,0.0,78,0.00,CLR,,0.00,WeatherDisplay:10.37,2013-04-22 02:02:00,
2013-04-21 22:07:00,54.0,46.9,30.29,West,270,0.0,0.0,77,0.00,CLR,,0.00,WeatherDisplay:10.37,2013-04-22 02:07:00,
2013-04-21 22:12:00,54.0,47.3,30.30,West,270,0.0,0.0,78,0.00,CLR,,0.00,WeatherDisplay:10.37,2013-04-22 02:12:00,
2013-04-21 22:17:00,53.8,47.8,30.29,West,270,0.0,0.0,80,0.00,CLR,,0.00,WeatherDisplay:10.37,2013-04-22 02:17:00,
2013-04-21 22:22:00,53.8,47.8,30.29,West,270,0.0,0.0,80,0.00,CLR,,0.00,WeatherDisplay:10.37,2013-04-22 02:22:00,
2013-04-21 22:27:00,53.6,47.9,30.29,West,270,0.0,0.0,81,0.00,CLR,,0.00,WeatherDisplay:10.37,2013-04-22 02:27:00,
2013-04-21 22:32:00,53.2,47.9,30.29,West,270,0.0,0.0,82,0.00,CLR,,0.00,WeatherDisplay:10.37,2013-04-22 02:32:00,
2013-04-21 22:37:00,53.1,47.7,30.29,West,270,0.0,0.0,82,0.00,CLR,,0.00,WeatherDisplay:10.37,2013-04-22 02:37:00,
2013-04-21 22:42:00,52.7,47.7,30.29,West,270,0.0,0.0,83,0.00,CLR,,0.00,WeatherDisplay:10.37,2013-04-22 02:42:00,
2013-04-21 22:47:00,52.5,47.5,30.29,North,0,0.0,0.0,83,0.00,CLR,,0.00,WeatherDisplay:10.37,2013-04-22 02:47:00,
2013-04-21 22:52:00,52.5,47.5,30.29,North,0,0.0,0.0,83,0.00,CLR,,0.00,WeatherDisplay:10.37,2013-04-22 02:52:00,
2013-04-21 22:57:00,51.8,47.1,30.28,West,270,0.0,0.0,84,0.00,CLR,,0.00,WeatherDisplay:10.37,2013-04-22 02:57:00,
2013-04-21 23:02:00,51.6,47.3,30.29,NW,315,0.0,0.0,85,0.00,CLR,,0.00,WeatherDisplay:10.37,2013-04-22 03:02:00,
2013-04-21 23:07:00,51.3,46.9,30.29,NW,315,0.0,0.0,85,0.00,CLR,,0.00,WeatherDisplay:10.37,2013-04-22 03:07:00,
2013-04-21 23:12:00,51.1,47.0,30.28,NW,315,0.0,0.0,86,0.00,CLR,,0.00,WeatherDisplay:10.37,2013-04-22 03:12:00,
2013-04-21 23:17:00,50.9,46.9,30.28,NW,315,0.0,0.0,86,0.00,CLR,,0.00,WeatherDisplay:10.37,2013-04-22 03:17:00,
2013-04-21 23:22:00,50.7,46.7,30.28,NW,315,0.0,0.0,86,0.00,CLR,,0.00,WeatherDisplay:10.37,2013-04-22 03:22:00,
2013-04-21 23:27:00,50.4,46.3,30.28,NW,315,0.0,0.0,86,0.00,CLR,,0.00,WeatherDisplay:10.37,2013-04-22 03:27:00,
2013-04-21 23:32:00,50.2,46.5,30.28,NW,315,0.0,0.0,87,0.00,CLR,,0.00,WeatherDisplay:10.37,2013-04-22 03:32:00,
2013-04-21 23:37:00,50.0,46.3,30.28,West,270,0.0,0.0,87,0.00,CLR,,0.00,WeatherDisplay:10.37,2013-04-22 03:37:00,
2013-04-21 23:42:00,50.0,46.6,30.28,NW,315,0.0,0.0,88,0.00,CLR,,0.00,WeatherDisplay:10.37,2013-04-22 03:42:00,
2013-04-21 23:47:00,49.8,46.7,30.28,NW,315,0.0,0.0,89,0.00,CLR,,0.00,WeatherDisplay:10.37,2013-04-22 03:47:00,
2013-04-21 23:52:00,49.6,46.5,30.28,NW,315,0.0,0.0,89,0.00,CLR,,0.00,WeatherDisplay:10.37,2013-04-22 03:52:00,
2013-04-21 23:57:00,49.5,46.4,30.28,NW,315,0.0,0.0,89,0.00,CLR,,0.00,WeatherDisplay:10.37,2013-04-22 03:57:00,